Wind_Speed
4 2 9 11 13 11 11 1 10 18 23 30 34 38 29 25 31 38 40 35 36 34 22 22 23 21 17 13 14 12 11 11 10 11 11 10 8 5 4 5 7 8 9 10 10 11 12 12 14
9 1 5 8 11 11 4 6 13 20 24 31 34 31 26 22 30 41 39 36 36 30 20 22 23 20 17 15 13 14 15 15 16 16 14 14 10 7 7 5 5 6 8 9 9 10 10 11 12
9 4 2 11 10 5 12 9 20 15 29 31 29 30 27 25 30 44 42 33 35 26 19 22 21 18 17 15 18 20 21 21 19 16 15 16 15 12 9 5 3 2 5 6 4 5 7 8 9
12 8 5 11 4 13 9 16 22 22 27 31 33 22 24 26 30 43 40 31 35 23 18 21 21 20 17 19 23 26 27 29 28 26 22 22 18 17 14 8 5 7 8 7 7 6 3 6 8
16 13 7 14 0 5 12 19 24 27 28 32 19 26 25 29 28 37 35 30 34 20 16 19 20 21 18 22 26 26 30 33 33 32 31 29 29 31 32 29 25 21 20 21 22 21 16 6 3
18 14 8 9 16 11 18 25 27 26 29 25 26 33 28 30 31 37 31 30 33 17 14 16 18 19 22 27 29 31 35 38 36 35 39 42 43 39 35 42 44 37 35 37 40 40 33 23 14
23 17 17 11 12 8 17 18 26 25 25 24 30 27 28 33 34 35 29 30 31 13 12 14 15 18 23 23 22 28 30 33 38 38 43 49 50 41 41 44 45 42 37 37 40 43 40 37 28
23 20 17 11 16 7 17 18 19 27 18 15 26 23 28 31 35 31 27 31 26 9 11 13 13 19 21 22 23 26 27 29 37 39 40 43 48 50 46 53 54 53 50 40 34 36 41 37 36
27 24 21 18 11 15 17 13 23 23 13 10 27 26 27 32 33 28 26 30 23 6 10 10 11 15 16 13 16 21 22 25 31 36 38 40 42 45 43 48 50 50 50 45 36 41 39 39 37
29 28 25 22 18 20 18 5 12 12 14 17 25 26 17 31 35 28 23 26 23 4 10 11 12 14 13 14 13 17 18 20 27 34 37 38 40 44 44 39 36 40 42 44 47 39 34 37 33
29 29 29 27 23 20 18 8 20 25 28 25 22 27 15 30 35 27 21 22 24 2 11 11 13 15 14 13 10 14 16 21 20 20 25 29 23 25 35 39 35 30 31 21 30 32 35 35 30
33 32 31 32 27 20 19 11 23 24 7 17 17 22 27 30 31 23 18 19 24 5 10 13 17 16 14 11 15 17 20 22 25 29 32 30 32 28 21 33 32 31 30 30 27 30 37 30 29
36 34 34 32 31 31 27 21 22 16 10 13 19 33 29 27 24 16 14 16 18 8 8 13 19 18 17 20 21 22 28 26 24 28 26 29 26 29 29 27 29 28 31 32 32 35 32 30 25
39 37 34 34 33 31 29 25 23 24 28 30 34 33 29 24 13 13 11 13 15 10 11 13 18 17 17 17 16 19 26 24 24 29 24 26 29 31 27 23 26 29 31 31 32 33 33 27 26
44 42 38 37 35 32 27 25 22 23 26 30 26 25 19 9 11 12 12 9 13 7 16 13 15 17 16 17 18 18 21 24 25 20 19 22 29 30 28 29 25 27 29 28 30 33 34 30 27
48 47 45 41 39 35 31 25 25 26 25 25 15 23 5 8 9 12 14 8 11 4 20 17 15 17 18 16 17 17 18 20 20 20 20 20 26 28 26 26 28 27 26 28 32 34 36 34 31
52 52 49 44 43 37 32 27 28 26 28 25 18 10 7 9 7 11 13 8 10 3 20 21 16 16 17 17 16 17 17 18 16 17 17 22 21 21 25 26 26 29 32 32 35 37 38 35 32
55 55 54 50 47 43 37 31 32 26 27 18 20 14 9 11 7 9 13 6 8 0 15 22 19 15 16 18 17 18 19 17 16 14 12 16 17 19 23 23 27 27 29 31 34 37 38 37 33
55 54 52 52 49 47 42 35 34 25 29 24 15 22 15 13 9 6 11 6 7 3 10 20 22 17 16 17 17 18 18 16 15 12 13 12 13 15 19 21 22 22 26 28 32 34 37 38 35
58 54 53 54 53 51 46 37 35 30 35 43 32 29 23 18 12 7 8 8 4 3 5 18 23 21 17 16 18 17 16 15 14 13 11 11 11 12 16 18 17 21 25 27 30 32 35 38 36
64 60 59 56 53 48 45 38 40 36 33 39 32 29 29 22 17 11 7 8 4 3 6 12 18 25 21 18 17 17 15 14 12 13 13 11 10 9 12 14 15 19 21 26 29 31 33 36 35
67 66 65 62 55 47 45 38 42 41 40 44 27 33 30 27 20 13 7 6 4 5 5 14 17 21 26 21 19 17 16 14 13 10 11 10 9 9 8 10 13 15 19 22 26 29 30 33 34
70 70 68 67 60 52 42 38 40 44 46 46 42 31 31 28 20 16 9 8 4 6 8 11 18 21 26 25 22 21 18 15 13 11 9 8 7 7 6 6 10 13 16 20 22 27 27 29 31
76 74 71 68 66 57 50 42 46 46 53 45 43 37 37 31 26 19 14 9 6 7 9 8 13 17 21 31 27 24 21 18 15 12 8 8 6 5 6 6 7 9 13 17 20 22 25 27 26
79 79 78 73 68 58 60 50 50 53 55 55 48 44 30 27 32 22 19 15 13 11 10 9 10 11 14 24 34 31 25 21 19 16 12 9 6 4 4 5 5 5 8 13 15 17 21 24 25
82 84 82 78 74 64 68 55 56 61 60 61 55 48 40 31 27 28 23 21 18 14 14 11 12 13 11 19 29 37 33 28 24 21 16 12 9 5 2 2 3 3 5 9 12 13 15 19 22
86 86 81 84 80 76 73 65 64 63 66 66 58 57 44 41 32 33 27 25 23 17 15 15 13 17 14 16 23 32 33 31 29 27 22 18 13 8 4 2 2 3 2 3 7 10 10 13 16
92 89 89 88 85 82 78 71 71 69 68 69 61 62 51 51 44 33 31 35 30 21 18 16 17 17 17 18 20 27 30 29 31 31 28 23 19 14 10 6 6 5 4 2 1 4 5 7 10
95 97 99 94 90 86 84 77 74 81 75 72 68 64 60 55 50 47 46 46 33 26 23 21 19 21 20 18 21 24 29 29 31 33 31 28 24 19 15 13 9 9 8 7 5 3 2 2 5
98 96 96 101 98 93 87 79 81 85 83 78 78 74 72 66 58 54 42 47 28 33 28 26 24 24 25 22 20 24 26 29 31 32 32 30 26 23 21 18 15 13 13 12 11 8 6 5 4
Wind_Direction
173 50 29 21 24 38 105 317 299 317 322 330 327 332 336 345 358 354 347 346 349 350 3 11 8 10 18 40 36 27 35 38 48 43 35 21 6 337 304 282 266 260 256 250 250 249 250 246 245
195 245 29 38 58 47 50 303 298 308 328 329 330 335 334 344 337 352 347 348 351 356 12 14 17 19 39 51 53 44 52 58 60 55 54 45 30 13 352 333 290 264 250 245 247 251 249 246 241
208 235 72 17 343 30 197 277 292 308 323 322 329 333 342 343 341 354 348 349 355 2 17 23 26 34 48 59 66 69 74 69 65 60 50 43 35 25 18 17 27 326 256 244 236 243 248 240 237
215 214 199 149 344 272 289 282 286 291 314 322 324 336 357 338 344 349 347 354 357 7 22 34 39 41 58 71 83 80 75 69 64 61 55 47 40 31 28 34 38 54 60 67 42 9 313 245 241
206 202 216 317 208 60 271 287 278 299 310 319 320 334 350 349 344 343 348 355 356 10 32 46 41 42 76 87 89 85 83 73 67 61 57 59 58 58 57 62 65 65 60 57 59 58 51 31 299
201 190 201 127 321 265 291 273 288 302 309 316 316 330 341 349 347 347 349 354 353 13 42 55 45 50 92 101 90 86 86 76 69 69 63 62 60 65 72 75 69 73 78 78 71 64 55 42 29
192 194 206 184 162 274 292 317 298 299 299 308 319 336 346 346 347 347 349 352 353 16 48 57 53 69 101 101 96 85 91 78 71 79 72 72 64 69 83 65 61 64 74 79 70 56 47 49 47
198 202 215 219 190 172 175 300 308 297 287 304 328 337 339 342 344 347 350 353 354 22 55 67 66 89 104 93 95 89 93 89 74 81 79 73 66 66 76 68 60 58 61 56 50 48 50 50 54
205 207 202 211 223 222 237 253 288 288 293 334 339 338 340 343 346 345 349 356 355 34 66 77 82 105 101 100 88 90 94 92 85 83 76 75 73 70 67 65 59 63 62 57 57 50 48 50 56
212 209 211 220 218 231 243 203 79 282 285 315 319 336 326 341 346 341 349 354 0 50 75 77 88 110 102 95 93 104 103 104 87 86 71 70 67 61 58 50 53 52 50 50 54 46 44 50 60
228 224 221 224 230 228 227 257 264 298 291 305 309 329 298 340 338 336 347 352 2 107 87 87 95 110 94 91 98 113 116 107 94 80 72 64 62 43 59 53 56 54 43 42 49 35 42 50 56
226 223 217 220 222 215 191 208 272 312 323 309 298 311 305 319 331 328 345 352 355 163 113 101 112 102 84 103 124 121 110 100 87 90 72 72 61 63 63 56 53 61 56 54 54 39 39 44 60
229 230 230 226 223 220 224 238 255 206 282 301 288 310 305 313 320 327 339 355 1 179 150 116 124 113 97 93 107 103 106 106 96 83 77 75 74 68 65 60 61 59 54 52 47 40 35 40 51
228 228 227 231 230 228 236 245 254 265 276 274 284 299 305 311 311 326 342 351 5 185 171 136 141 130 114 100 107 106 100 108 100 82 78 73 73 74 63 64 61 61 59 52 49 43 34 31 44
230 230 226 228 231 233 240 245 255 260 271 271 302 281 312 300 312 330 347 348 359 189 185 155 146 149 130 122 116 114 109 97 88 98 87 79 72 68 68 65 66 59 59 54 50 49 45 37 42
227 230 230 231 233 235 239 243 249 258 270 256 273 299 304 302 312 331 346 341 357 207 192 180 156 154 143 133 127 118 112 108 97 94 85 74 62 63 64 70 73 72 65 57 54 50 48 45 46
226 228 230 231 235 236 239 240 246 247 258 263 255 278 280 284 301 325 341 343 352 189 193 191 171 163 153 143 131 121 115 113 114 100 88 81 84 67 63 69 71 63 56 52 48 47 48 48 51
225 228 232 231 233 234 237 238 242 243 249 261 236 241 243 278 286 321 330 338 353 247 190 193 181 169 165 149 135 121 116 120 119 118 105 84 86 71 65 62 61 58 54 52 50 47 48 47 52
225 226 228 231 233 237 237 234 238 230 219 200 237 257 246 270 267 301 323 331 356 8 190 191 188 178 176 165 146 131 120 115 115 120 121 92 87 71 69 65 59 58 60 55 50 49 49 50 53
226 226 229 231 231 230 231 224 231 224 211 213 220 245 256 251 242 264 299 334 325 7 181 185 192 187 182 179 158 146 136 125 118 112 119 108 94 77 76 65 59 55 54 54 50 49 48 52 55
227 226 228 230 231 229 230 220 220 220 216 203 211 223 240 237 243 245 279 320 284 298 175 191 196 197 185 190 175 161 152 140 127 119 125 128 115 91 85 64 57 52 52 55 52 49 47 52 56
231 228 228 230 230 228 226 211 218 214 206 207 220 231 232 229 230 236 258 291 308 267 231 192 208 207 201 189 193 176 172 162 151 135 125 132 138 124 98 62 54 51 46 51 54 53 48 52 54
228 228 229 229 229 226 221 208 208 210 193 200 218 215 217 220 213 232 229 257 280 248 258 217 212 215 210 197 196 195 188 186 174 158 143 126 124 117 99 74 51 46 48 50 52 53 52 51 52
227 227 227 228 229 225 223 206 203 214 202 199 197 205 218 225 210 221 223 231 241 227 260 248 221 228 223 207 196 194 197 196 196 187 168 151 143 114 101 85 63 50 44 46 50 51 49 53 55
229 228 227 227 227 222 222 205 206 209 216 209 206 197 196 217 216 216 223 224 229 218 229 241 228 220 235 232 215 210 203 202 207 201 191 178 175 133 108 84 63 56 49 51 53 53 51 52 53
230 229 228 227 225 219 222 206 211 213 210 213 220 212 209 217 218 224 223 235 237 228 225 228 250 230 228 241 234 221 213 211 210 210 203 196 198 190 159 77 43 38 52 55 54 56 53 49 52
232 231 230 228 227 223 224 213 215 213 214 214 218 216 208 216 211 224 228 234 245 244 242 234 235 256 220 223 233 228 217 209 212 211 209 206 213 209 204 228 286 346 13 43 53 54 51 49 44
234 232 231 229 226 225 225 218 218 216 215 213 217 221 211 211 214 212 224 241 237 251 252 243 233 242 237 216 222 226 217 217 215 213 215 214 221 227 226 244 253 279 306 278 21 48 48 39 40
233 231 230 229 226 224 222 219 217 220 214 213 209 219 216 208 208 206 207 229 223 253 252 251 242 227 243 233 221 218 219 212 216 213 216 219 221 227 231 240 256 264 276 283 258 254 321 9 2
235 232 234 232 227 223 222 218 218 220 215 213 210 210 219 210 212 212 228 228 256 246 241 250 244 240 233 243 231 224 219 218 220 220 220 224 225 228 233 238 247 255 262 268 269 255 251 283 311
Height
11021 11020 11021 11020 11019 11019 11021 11012 11021 11021 11017 11016 11013 11013 11011 11008 11004 11000 10994 10988 10982 10975 10969 10966 10964 10961 10959 10957 10956 10954 10952 10950 10948 10946 10944 10940 10937 10935 10934 10933 10931 10931 10932 10931 10932 10933 10933 10934 10935
11021 11021 11022 11021 11020 11020 11025 11029 11020 11020 11019 11017 11014 11011 11009 11007 11005 10999 10993 10987 10982 10976 10971 10967 10965 10963 10961 10959 10958 10956 10955 10952 10950 10949 10947 10944 10941 10937 10935 10933 10931 10931 10932 10932 10933 10933 10933 10933 10932
11020 11021 11023 11025 11021 11024 11026 11027 11019 11022 11020 11017 11015 11013 11010 11007 11004 10999 10993 10987 10984 10978 10973 10970 10968 10965 10963 10961 10960 10959 10958 10956 10954 10952 10949 10946 10943 10940 10937 10934 10932 10931 10931 10932 10932 10933 10932 10931 10930
11019 11021 11022 11022 11027 11027 11027 11027 11024 11022 11022 11018 11017 11014 11011 11008 11004 10999 10994 10989 10985 10980 10976 10973 10971 10969 10967 10964 10964 10964 10962 10960 10957 10955 10951 10948 10944 10939 10936 10934 10932 10932 10932 10933 10934 10933 10931 10929 10929
11017 11018 11020 11025 11024 11024 11027 11028 11027 11024 11022 11019 11016 11013 11011 11008 11003 11000 10995 10990 10986 10982 10979 10976 10974 10972 10970 10969 10969 10968 10967 10965 10962 10959 10956 10952 10948 10944 10940 10936 10934 10934 10935 10936 10935 10933 10930 10928 10927
11015 11018 11018 11019 11022 11024 11026 11025 11025 11025 11021 11020 11016 11013 11011 11008 11004 11000 10995 10991 10987 10984 10982 10980 10979 10977 10976 10975 10974 10973 10971 10970 10967 10965 10963 10959 10954 10949 10945 10942 10940 10938 10938 10938 10937 10933 10931 10929 10928
11014 11015 11015 11017 11020 11019 11018 11021 11022 11021 11018 11017 11017 11013 11011 11010 11005 11000 10996 10992 10988 10986 10985 10983 10982 10981 10981 10980 10979 10977 10975 10974 10973 10970 10968 10966 10960 10955 10952 10950 10948 10946 10944 10943 10938 10934 10931 10930 10928
11012 11013 11016 11018 11020 11017 11007 11019 11021 11014 11015 11013 11016 11013 11012 11012 11008 11001 10997 10994 10990 10988 10987 10986 10985 10986 10985 10985 10983 10981 10980 10979 10978 10975 10972 10969 10966 10962 10958 10958 10956 10954 10953 10950 10945 10939 10934 10931 10927
11009 11012 11014 11015 11018 11019 11020 11020 11019 11018 11014 11011 11014 11014 11014 11012 11010 11004 10999 10996 10993 10991 10990 10989 10988 10989 10989 10988 10987 10986 10985 10984 10982 10979 10975 10975 10972 10968 10964 10963 10961 10959 10957 10953 10950 10946 10940 10935 10932
11005 11009 11012 11013 11016 11016 11018 11026 11033 11032 11016 11010 11012 11011 11012 11012 11010 11005 11001 10999 10996 10993 10993 10991 10990 10991 10991 10991 10990 10990 10989 10988 10987 10983 10982 10981 10976 10973 10970 10969 10967 10966 10963 10958 10956 10952 10946 10941 10936
11001 11006 11009 11011 11010 11011 11014 11017 11022 11016 11011 11008 11012 11011 11012 11012 11011 11006 11003 11001 10999 10996 10995 10994 10993 10994 10993 10993 10994 10993 10993 10993 10993 10990 10987 10984 10982 10978 10973 10971 10972 10969 10967 10964 10959 10957 10950 10945 10940
10994 10998 11004 11007 11008 11009 11010 11010 11009 11011 11008 11012 11010 11013 11013 11013 11013 11007 11004 11003 11001 10999 10998 10997 10997 10997 10995 10995 10996 10996 10996 10998 10997 10994 10991 10988 10986 10984 10979 10975 10978 10976 10973 10969 10959 10962 10956 10951 10950
10988 10994 10999 11004 11005 11008 11009 11010 11010 11015 11011 11011 11010 11014 11015 11013 11012 11009 11003 11004 11003 11001 11001 11002 11001 11000 11000 11000 11001 11001 11000 11001 11001 10999 10998 10993 10991 10987 10984 10982 10983 10981 10978 10973 10969 10965 10964 10959 10954
10982 10988 10993 10997 11002 11004 11008 11011 11011 11012 11012 11008 11010 11014 11013 11012 11010 11009 11007 11005 11003 11003 11003 11004 11004 11003 11004 11004 11005 11006 11006 11004 11004 11003 11003 11000 10995 10991 10991 10988 10986 10985 10982 10979 10975 10972 10967 10962 10959
10973 10979 10986 10990 10995 11000 11006 11011 11012 11009 11007 11009 11009 11010 11010 11010 11010 11009 11006 11006 11003 11004 11004 11006 11006 11006 11007 11008 11008 11009 11010 11007 11008 11007 11008 11004 11001 10997 10995 10993 10991 10989 10987 10986 10982 10979 10973 10968 10964
10964 10969 10976 10983 10988 10994 11001 11007 11006 11004 11004 11006 11007 11007 11003 11009 11010 11009 11006 11004 11003 11002 11005 11007 11007 11008 11009 11010 11011 11011 11013 11012 11011 11011 11010 11008 11005 11004 11002 11000 10998 10995 10995 10993 10989 10984 10977 10972 10969
10952 10956 10967 10975 10981 10988 10995 11001 10999 11001 10995 10999 11000 11002 11003 11007 11009 11009 11008 11004 11001 11002 11003 11006 11007 11009 11010 11011 11012 11013 11014 11014 11014 11014 11013 11012 11010 11011 11010 11006 11004 11001 10997 10996 10992 10988 10982 10977 10972
10940 10946 10955 10965 10971 10980 10988 10995 10993 10995 10992 10994 10996 10994 10999 11006 11007 11008 11007 11005 11001 11001 11002 11006 11008 11010 11012 11013 11013 11014 11016 11017 11017 11016 11015 11015 11016 11016 11013 11011 11007 11005 11003 11001 10998 10993 10988 10983 10977
10932 10938 10946 10954 10962 10971 10979 10987 10986 10991 10988 10987 10992 10992 10996 11002 11005 11005 11006 11004 11002 11001 11002 11005 11008 11010 11013 11014 11015 11015 11017 11019 11020 11019 11019 11019 11018 11018 11016 11015 11013 11013 11010 11007 11002 10998 10994 10988 10983
10922 10929 10935 10940 10949 10958 10968 10978 10981 10982 10984 10984 10987 10988 10992 10999 11001 11002 11003 11003 11002 11001 11001 11004 11008 11010 11012 11015 11015 11016 11017 11019 11021 11020 11019 11020 11022 11021 11020 11019 11017 11016 11012 11010 11006 11003 10999 10992 10988
10909 10919 10921 10929 10938 10951 10960 10971 10973 10976 10976 10980 10984 10986 10990 10996 10996 10998 11000 11000 11001 11002 11001 11004 11007 11010 11011 11014 11016 11017 11018 11019 11021 11022 11022 11022 11023 11023 11022 11022 11020 11018 11017 11014 11010 11006 11002 10999 10995
10896 10904 10909 10916 10928 10942 10949 10964 10966 10969 10971 10973 10977 10981 10986 10993 10994 10994 10996 10998 10999 11002 11002 11002 11006 11008 11010 11013 11017 11017 11018 11020 11021 11023 11023 11024 11025 11025 11024 11023 11022 11021 11020 11017 11014 11011 11009 11005 11002
10878 10886 10896 10904 10918 10930 10943 10955 10959 10960 10964 10968 10975 10981 10983 10988 10990 10992 10990 10995 10997 11000 11002 11001 11004 11006 11009 11013 11015 11017 11019 11021 11022 11023 11024 11024 11025 11024 11025 11025 11024 11024 11022 11020 11018 11016 11014 11010 11007
10860 10870 10881 10891 10904 10921 10932 10943 10950 10951 10950 10960 10965 10967 10978 10981 10982 10986 10985 10990 10994 10996 10999 10999 11001 11004 11008 11011 11014 11016 11018 11021 11023 11024 11025 11025 11026 11026 11026 11026 11026 11025 11025 11023 11021 11019 11018 11015 11013
10842 10852 10865 10877 10889 10914 10916 10929 10939 10938 10940 10945 10951 10957 10966 10971 10974 10976 10981 10986 10988 10992 10994 10997 10998 11000 11004 11009 11012 11014 11017 11020 11022 11023 11025 11025 11026 11026 11026 11025 11025 11025 11025 11024 11023 11022 11022 11019 11017
10822 10831 10846 10862 10874 10893 10898 10920 10928 10923 10928 10935 10938 10950 10955 10961 10965 10972 10977 10983 10984 10986 10989 10993 10996 10996 10999 11004 11009 11012 11014 11018 11020 11022 11025 11026 11026 11026 11026 11025 11025 11025 11025 11024 11024 11024 11024 11022 11021
10807 10815 10834 10842 10856 10872 10883 10904 10912 10917 10920 10927 10932 10940 10947 10952 10959 10969 10974 10980 10981 10982 10984 10988 10991 10994 10994 10999 11003 11008 11013 11015 11018 11021 11023 11024 11025 11026 11027 11026 11025 11025 11025 11025 11025 11025 11025 11025 11024
10781 10798 10805 10819 10837 10854 10869 10887 10899 10904 10908 10913 10921 10925 10931 10941 10958 10960 10959 10972 10979 10978 10980 10984 10988 10992 10993 10995 10998 11003 11008 11013 11015 11018 11020 11023 11024 11025 11026 11026 11025 11025 11025 11025 11025 11025 11026 11026 11026
10753 10767 10775 10792 10812 10832 10849 10871 10884 10881 10893 10901 10911 10913 10920 10930 10942 10953 10954 10963 10970 10975 10974 10979 10984 10987 10992 10993 10995 10998 11003 11007 11011 11014 11016 11019 11022 11023 11024 11024 11024 11024 11024 11024 11025 11025 11024 11025 11026
10727 10748 10757 10769 10788 10808 10828 10859 10865 10865 10875 10886 10890 10897 10901 10915 10927 10944 10950 10955 10960 10965 10967 10971 10979 10983 10988 10992 10993 10995 10999 11004 11006 11009 11013 11015 11018 11019 11020 11021 11022 11021 11022 11022 11023 11024 11023 11023 11024